This is the latest recevied weather packets stored in our database for station/object HS3UAA-1. If no packets are shown the sender has not sent any weather packets the latest 10 day(s).
| Time | Temp. | Humidity | Pressure | Rain* | Wind** | Luminosity | Snow |
|---|---|---|---|---|---|---|---|
| 1788022518 | 31.67° C | 52% | 997 hPa | - | - | 0 W/m² | - |
| 1788022196 | 31.67° C | 52% | 997 hPa | - | - | 0 W/m² | - |
| 1788021874 | 32.78° C | 51% | 997 hPa | - | - | 0 W/m² | - |
| 1788021552 | 31.67° C | 52% | 997 hPa | - | - | 0 W/m² | - |
| 1788021230 | 32.22° C | 52% | 997 hPa | - | - | 0 W/m² | - |
| 1788020908 | 31.67° C | 53% | 997 hPa | - | - | 0 W/m² | - |
| 1788020586 | 32.22° C | 52% | 997 hPa | - | - | 0 W/m² | - |
| 1788020264 | 32.22° C | 52% | 997 hPa | - | - | 0 W/m² | - |
| 1788019942 | 32.22° C | 52% | 997 hPa | - | - | 0 W/m² | - |
| 1788019619 | 32.78° C | 50% | 997 hPa | - | - | 0 W/m² | - |
| 1788019297 | 32.22° C | 52% | 997 hPa | - | - | 0 W/m² | - |
| 1788018975 | 32.22° C | 51% | 997 hPa | - | - | 0 W/m² | - |
| 1788018653 | 32.22° C | 52% | 997 hPa | - | - | 0 W/m² | - |
| 1788018331 | 32.22° C | 51% | 997 hPa | - | - | 0 W/m² | - |
| 1788018009 | 32.22° C | 52% | 997 hPa | - | - | 0 W/m² | - |
| 1788017687 | 32.22° C | 52% | 997 hPa | - | - | 0 W/m² | - |
| 1788017365 | 32.22° C | 51% | 997 hPa | - | - | 0 W/m² | - |
| 1788017043 | 32.78° C | 50% | 997 hPa | - | - | 0 W/m² | - |
| 1788016721 | 32.78° C | 51% | 997 hPa | - | - | 0 W/m² | - |
| 1788016399 | 32.22° C | 51% | 997 hPa | - | - | 0 W/m² | - |
| 1788016077 | 32.22° C | 51% | 997 hPa | - | - | 0 W/m² | - |
| 1788015672 | 32.78° C | 50% | 997 hPa | - | - | 0 W/m² | - |
| 1788015350 | 33.89° C | 47% | 997 hPa | - | - | 0 W/m² | - |
| 1788015028 | 32.22° C | 51% | 997 hPa | - | - | 0 W/m² | - |
| 1788014544 | 32.78° C | 50% | 997 hPa | - | - | 0 W/m² | - |
* Rain since midnight (hover to see other rain measurements)
** Current wind speed in m/s (hover to see current wind gust speed)